Погода в Пещерах

Россия / Ивановская область     56°53′25″N   40°50′49″E
темп.,
°C
ветер,
м/с
пор.,
м/с
влажн.,
%
обл.,
%
осадки,
мм/ч
давл.,
гПа
погр.,
м
14 апреля, ср
ср1400:00+10ююв3116685 0.0 1024192
03:00+9ю312701 0.0 1023233
06:00+8ююв311755 0.0 1023208
09:00+14ю485336 0.0 1022364
12:00+19ю573763 0.0 1021936
15:00+20ю572964 0.0 10201842
18:00+17ю2644100 0.0 1018138
21:00+12ю3660100 0.0 101993
15 апреля, чт
чт1500:00+11ююз2262100 0.0 101820
03:00+9ю1164100 0.0 101810
06:00+8св1169100 0.0 101810
09:00+12св2359100 0.0 1019206
12:00+16св3451100 0.0 1019731
15:00+16ссв5659100 0.0 10191142
18:00+11св697799 0.0 1021577
21:00+7св51285100 0.0 1023492
16 апреля, пт
пт1600:00+5св51385100 0.0 1023504
03:00+5всв51283100 0.0 1024492
06:00+4всв51284100 0.0 1025482
09:00+7всв597195 0.0 1025563
12:00+10всв585795 0.0 1026893
15:00+13всв685181 0.0 10251197
18:00+11всв585589 0.0 10261061
21:00+8всв4135763 0.0 1027510
17 апреля, сб
сб1700:00+5всв4136327 0.0 1028433
03:00+4всв4136627 0.0 1028402
06:00+3всв413665 0.0 1029414
09:00+7всв510475 0.0 1030663
12:00+11всв68345 0.0 10291140
15:00+12всв57345 0.0 10291391
18:00+11всв47411 0.0 1028805
21:00+6св39630 0.0 1029170
18 апреля, вс
вс1800:00+4св39740 0.0 1030194
03:00+3св38770 0.0 1031161
06:00+2св28790 0.0 1031168
09:00+8всв36545 0.0 1031562
12:00+11всв454178 0.0 10311541
15:00+13всв4639100 0.0 10311757
18:00+11всв3749100 0.0 1031495
21:00+8всв31068100 0.0 1032294